星链-31443 (STARLINK-31443 )

导读 | 豆包AI

STARLINK-31443是美国太空探索技术公司(SpaceX)星链(Starlink)互联网星座的成员,于2024年4月2日发射入轨,属于星链星座第二代部署批次。星链计划旨在构建全球卫星互联网通信网络,该卫星承担着为全球偏远地区、海洋空域等提供宽带互联网接入服务的任务,是SpaceX推进低轨巨型星座组网的组成部分。

基本信息
目录编号:
59393
目录名称:
STARLINK-31443
国际标识:
2024-062V
轨道中心:
EARTH
卫星名称:
星链-31443
卫星全名:
星链-31443 (STARLINK-31443 )
卫星状态:
在轨 (已飞行758 天)
发射日期:
2024-04-02 UTC
国别 :
美国 (US)
星等 :
--
轨道信息
数据来源 国际轨道数据
星历时间: 2026-04-30T23:33:56+0800
8小时前
查看轨道信息
半长轴: 6840.894km
偏心率: 0.000053
轨道倾角: 53.163°
近地点辐角 134.080°
升交点赤经 1.560°
平近点角 226.024°
近地点: 462.394km
远地点: 463.12km
周期: 93.849分钟
每日圈数: 15.343821
详细信息
固有亮度:
5
最大亮度:
0.3
卫星平台:
Starlink v2.0 mini
覆盖范围:
全球
运营商:
太空探索技术公司
运营商所在国:
美国
制造商(研发单位):
太空探索技术公司
制造商所在国:
美国
使用方式:
暂无
卫星简介
星链(Starlink)计划是由太空探索技术公司(SpaceX)提出的一个巨型低轨卫星互联网星座项目,计划在2019年至2024年间在太空搭建由约1.2万颗卫星组成的“星链”网络,其中1584颗将部署在地球上空550千米处的近地轨道,并从2020年开始工作。该卫星仍在工作。
2D轨道图
3D轨道图
轨道高度分析图
轨道倾角分析图
轨道综合分析图
查看轨道综合分析图